Location: Newark
(39.0622°N, 106.5590°E)
Time: 20:32:52
(UTC+00:00)

Courier 1B - Pass Details

Date: 24 January 2020
Orbit: 962 x 1209 km, 28.3° (Epoch: 27 February)

Event Time Altitude Azimuth Distance (km) Brightness Sun altitude
Rises 20:11:36 0° 236° (WSW) 3,865 - -45.4°
Reaches altitude 10° 20:14:37 10° 227° (SW) 2,949 - -44.9°
Maximum altitude 20:20:52 31° 168° (SSE) 1,871 - -43.7°
Exits shadow 20:23:55 24° 130° (SE) 2,211 9.5 -43.1°
Drops below altitude 10° 20:27:25 10° 109° (ESE) 3,094 10.6 -42.4°
Sets 20:30:38 0° 100° (E) 4,082 11.5 -41.8°
